IV3IYL-13 Weather Reports


time (UTC)temp
C
wind
direction
speed
KPH
gust
KPH
rain 1hr
cm
rain 24hr
cm
rain mn
cm
humidity
%
barometer
mb
20260502232111 13 0.0 0.0 0.00 0.00 0.00 80 1020.0
20260502231111 13 0.0 0.0 0.00 0.00 0.00 78 1020.1
20260502230121 13 0.0 0.0 0.00 0.00 0.00 82 1020.2
20260502225111 13 0.0 0.0 0.00 0.00 0.00 80 1020.1
20260502224111 13 0.0 0.0 0.00 0.00 0.00 82 1020.3
20260502223111 13 0.0 0.0 0.00 0.00 0.00 83 1020.4
20260502222111 13 0.0 0.0 0.00 0.00 0.00 82 1020.3
20260502221111 13 0.0 0.0 0.00 0.00 0.00 85 1020.4
20260502220111 13 0.0 0.0 0.00 0.00 0.00 86 1020.3
20260502215126 13 0.0 0.0 0.00 0.00 0.00 86 1020.1
20260502214111 13 0.0 0.0 0.00 0.00 0.00 84 1020.2
20260502213111 13 0.0 0.0 0.00 0.00 0.00 83 1020.1
20260502212126 13 0.0 0.0 0.00 0.00 0.00 80 1020.1
20260502211111 14 0.0 0.0 0.00 0.00 0.00 81 1020.0
20260502210126 14 0.0 0.0 0.00 0.00 0.00 81 1020.1
20260502205110 15 0.0 0.0 0.00 0.00 0.00 76 1020.0
20260502204126 15 0.0 0.0 0.00 0.00 0.00 74 1020.0
20260502203111 15 0.0 0.0 0.00 0.00 0.00 75 1020.1
20260502202110 15 0.0 0.0 0.00 0.00 0.00 72 1020.0
20260502201110 15 0.0 0.0 0.00 0.00 0.00 72 1020.1
20260502200110 15 0.0 0.0 0.00 0.00 0.00 70 1020.2
20260502195110 16 0.0 0.0 0.00 0.00 0.00 67 1020.1
20260502194110 16 0.0 0.0 0.00 0.00 0.00 65 1020.1
20260502193110 16 0.0 0.0 0.00 0.00 0.00 62 1019.9
20260502192126 17 0.0 0.0 0.00 0.00 0.00 58 1019.8
20260502191125 17 0.0 0.0 0.00 0.00 0.00 55 1019.9
20260502190111 18 0.0 0.0 0.00 0.00 0.00 52 1019.7
20260502185110 18 0.0 0.0 0.00 0.00 0.00 49 1019.5
20260502184125 18 0.0 0.0 0.00 0.00 0.00 48 1019.4
20260502183110 19 0.0 0.0 0.00 0.00 0.00 46 1019.3
20260502182110 19 0.0 0.0 0.00 0.00 0.00 45 1019.4
20260502181110 20 0.0 0.0 0.00 0.00 0.00 45 1019.2
20260502180121 20 0.0 0.0 0.00 0.00 0.00 44 1019.2
20260502170110 22 0.0 0.0 0.00 0.00 0.00 37 1019.1
20260502164110 23 0.0 0.0 0.00 0.00 0.00 35 1019.1
20260502163110 23 0.0 0.0 0.00 0.00 0.00 32 1019.3
20260502162110 23 0.0 0.0 0.00 0.00 0.00 30 1019.3
20260502161109 24 0.0 0.0 0.00 0.00 0.00 32 1019.4
20260502160110 24 0.0 0.0 0.00 0.00 0.00 31 1019.4
20260502152109 24 0.0 0.0 0.00 0.00 0.00 30 1019.8
20260502151110 25 0.0 0.0 0.00 0.00 0.00 31 1019.9
20260502150109 25 0.0 0.0 0.00 0.00 0.00 31 1020.1
20260502140109 23 0.0 0.0 0.00 0.00 0.00 33 1020.8
20260502130109 23 0.0 0.0 0.00 0.00 0.00 32 1021.6
20260502123124 22 0.0 0.0 0.00 0.00 0.00 34 1021.8
20260502122109 22 0.0 0.0 0.00 0.00 0.00 33 1022.1
20260502121109 22 0.0 0.0 0.00 0.00 0.00 33 1022.1
20260502120109 22 0.0 0.0 0.00 0.00 0.00 33 1022.2
20260502115109 22 0.0 0.0 0.00 0.00 0.00 33 1022.4
20260502114109 22 0.0 0.0 0.00 0.00 0.00 34 1022.5
20260502113109 21 0.0 0.0 0.00 0.00 0.00 35 1022.7
20260502112109 21 0.0 0.0 0.00 0.00 0.00 34 1022.8
20260502111109 21 0.0 0.0 0.00 0.00 0.00 34 1022.9
20260502110108 21 0.0 0.0 0.00 0.00 0.00 38 1023.2
20260502105124 21 0.0 0.0 0.00 0.00 0.00 36 1023.3
20260502104109 21 0.0 0.0 0.00 0.00 0.00 35 1023.4
20260502103108 20 0.0 0.0 0.00 0.00 0.00 37 1023.4
20260502102108 20 0.0 0.0 0.00 0.00 0.00 39 1023.6
20260502101109 20 0.0 0.0 0.00 0.00 0.00 40 1023.7
20260502100124 19 0.0 0.0 0.00 0.00 0.00 39 1023.8
20260502091108 18 0.0 0.0 0.00 0.00 0.00 45 1024.5
20260502090108 17 0.0 0.0 0.00 0.00 0.00 47 1024.5
20260502080108 15 0.0 0.0 0.00 0.00 0.00 53 1025.0
20260502071108 14 0.0 0.0 0.00 0.00 0.00 64 1025.3
20260502070108 13 0.0 0.0 0.00 0.00 0.00 70 1025.4
20260502065108 13 0.0 0.0 0.00 0.00 0.00 70 1025.4
20260502064108 12 0.0 0.0 0.00 0.00 0.00 72 1025.4
20260502063108 12 0.0 0.0 0.00 0.00 0.00 74 1025.4
20260502062108 12 0.0 0.0 0.00 0.00 0.00 77 1025.6
20260502061108 12 0.0 0.0 0.00 0.00 0.00 81 1025.7
20260502060108 11 0.0 0.0 0.00 0.00 0.00 78 1025.6
20260502055108 11 0.0 0.0 0.00 0.00 0.00 81 1025.6
20260502054108 10 0.0 0.0 0.00 0.00 0.00 85 1025.7
20260502053123 10 0.0 0.0 0.00 0.00 0.00 89 1025.6
20260502052108 10 0.0 0.0 0.00 0.00 0.00 90 1025.7
20260502051108 9 0.0 0.0 0.00 0.00 0.00 91 1025.7
20260502050108 8 0.0 0.0 0.00 0.00 0.00 92 1025.7
20260502045107 8 0.0 0.0 0.00 0.00 0.00 93 1025.7
20260502044108 8 0.0 0.0 0.00 0.00 0.00 91 1025.7
20260502043107 8 0.0 0.0 0.00 0.00 0.00 93 1025.7
20260502042108 8 0.0 0.0 0.00 0.00 0.00 92 1025.7
20260502041107 8 0.0 0.0 0.00 0.00 0.00 90 1025.7
20260502040107 8 0.0 0.0 0.00 0.00 0.00 88 1025.6
20260502035107 8 0.0 0.0 0.00 0.00 0.00 89 1025.4
20260502034107 8 0.0 0.0 0.00 0.00 0.00 89 1025.5
20260502033107 8 0.0 0.0 0.00 0.00 0.00 89 1025.5
20260502032107 8 0.0 0.0 0.00 0.00 0.00 87 1025.5
20260502031107 8 0.0 0.0 0.00 0.00 0.00 84 1025.5
20260502030107 9 0.0 0.0 0.00 0.00 0.00 81 1025.6
20260502025107 10 0.0 0.0 0.00 0.00 0.00 74 1025.6
20260502024107 10 0.0 0.0 0.00 0.00 0.00 78 1025.7
20260502023107 9 0.0 0.0 0.00 0.00 0.00 80 1025.8
20260502022137 9 0.0 0.0 0.00 0.00 0.00 81 1025.9
20260502021153 9 0.0 0.0 0.00 0.00 0.00 81 1025.9
20260502020107 10 0.0 0.0 0.00 0.00 0.00 79 1025.7
20260502015107 10 0.0 0.0 0.00 0.00 0.00 80 1025.9
20260502014107 10 0.0 0.0 0.00 0.00 0.00 77 1025.9
20260502013107 10 0.0 0.0 0.00 0.00 0.00 78 1025.8
20260502012107 10 0.0 0.0 0.00 0.00 0.00 75 1025.8
20260502011107 10 0.0 0.0 0.00 0.00 0.00 79 1025.8
20260502010122 10 0.0 0.0 0.00 0.00 0.00 79 1025.8
20260502005122 10 0.0 0.0 0.00 0.00 0.00 79 1025.9
20260502004122 10 0.0 0.0 0.00 0.00 0.00 78 1025.8
20260502003106 10 0.0 0.0 0.00 0.00 0.00 77 1025.9
20260502002127 10 0.0 0.0 0.00 0.00 0.00 75 1025.9
20260502001107 10 0.0 0.0 0.00 0.00 0.00 73 1026.0
20260502000122 11 0.0 0.0 0.00 0.00 0.00 74 1025.9
20260501235107 11 0.0 0.0 0.00 0.00 0.00 74 1025.8
20260501234106 11 0.0 0.0 0.00 0.00 0.00 68 1025.9
20260501233107 12 0.0 0.0 0.00 0.00 0.00 65 1025.8